W2TAO Weather Reports


Display with metric or nautical units.
time (UTC)temp
F
wind
direction
speed
MPH
gust
MPH
rain 1hr
in
rain 24hr
in
rain mn
in
humidity
%
barometer
mb
20260504173045 68 288 3.0 9.0 0.00 0.00 0.00 36 1011.2
20260504172541 68 261 5.0 8.0 0.00 0.00 0.00 35 1011.3
20260504172038 68 235 4.0 7.0 0.00 0.00 0.00 35 1011.2
20260504171535 67 299 4.0 9.0 0.00 0.00 0.00 41 1011.3
20260504171032 66 252 4.0 10.0 0.00 0.00 0.00 36 1011.6
20260504170528 67 250 3.0 4.0 0.00 0.00 0.00 37 1011.6
20260504150912 61 258 5.0 9.0 0.00 0.00 0.00 41 1013.0
20260504150409 61 238 6.0 6.0 0.00 0.00 0.00 42 1012.9
20260504140835 59 242 7.0 11.0 0.00 0.00 0.00 43 1013.2
20260504140330 60 256 4.0 9.0 0.00 0.00 0.00 42 1013.2
20260504130800 56 251 5.0 5.0 0.00 0.00 0.00 47 1013.6
20260504130256 54 231 2.0 3.0 0.00 0.00 0.00 51 1013.9
20260504120219 44 135 2.0 4.0 0.00 0.00 0.00 74 1014.3
20260504110647 33 269 0.0 2.0 0.00 0.00 0.00 95 1014.3
20260504110143 33 73 2.0 2.0 0.00 0.00 0.00 95 1014.1
20260504100609 31 313 0.0 3.0 0.00 0.00 0.00 94 1014.0
20260504100107 31 330 2.0 3.0 0.00 0.00 0.00 95 1013.9
20260504082003 31 235 0.0 2.0 0.00 0.00 0.00 92 1014.0
20260504081500 31 299 0.0 1.0 0.00 0.00 0.00 92 1014.0
20260504080955 32 243 0.0 2.0 0.00 0.00 0.00 92 1014.0
20260504080452 32 273 1.0 1.0 0.00 0.00 0.00 92 1014.0
20260504050305 34 315 0.0 0.0 0.00 0.00 0.00 86 1013.5
20260504045803 34 284 2.0 2.0 0.00 0.00 0.00 85 1013.4
20260504045304 35 304 0.0 1.0 0.00 0.00 0.00 85 1013.3
20260504044800 35 291 0.0 1.0 0.00 0.00 0.00 84 1013.3
20260504044257 35 311 0.0 1.0 0.00 0.00 0.00 84 1013.4
20260504043754 35 286 1.0 2.0 0.00 0.00 0.00 84 1013.4
20260504043251 35 341 1.0 2.0 0.00 0.00 0.00 84 1013.2
20260504042749 36 11 0.0 1.0 0.00 0.00 0.00 84 1013.3
20260504042245 35 332 2.0 3.0 0.00 0.00 0.00 83 1013.3
20260504041742 36 3 0.0 2.0 0.00 0.00 0.00 85 1013.1
20260504041238 36 89 0.0 0.0 0.00 0.00 0.00 84 1013.1
20260504040734 36 60 0.0 0.0 0.00 0.00 0.00 85 1013.1
20260504040232 36 13 0.0 1.0 0.00 0.00 0.00 86 1012.9
20260504035727 36 4 0.0 1.0 0.00 0.00 0.00 86 1012.9
20260504035225 36 35 1.0 1.0 0.00 0.00 0.00 85 1012.9
20260504034722 36 304 0.0 0.0 0.00 0.00 0.00 85 1013.0
20260504034219 36 8 0.0 1.0 0.00 0.00 0.00 84 1012.9
20260504033717 36 339 0.0 0.0 0.00 0.00 0.00 84 1012.9
20260504033214 36 53 0.0 1.0 0.00 0.00 0.00 84 1013.0
20260504032711 36 25 0.0 1.0 0.00 0.00 0.00 83 1012.9
20260504032208 36 19 0.0 2.0 0.00 0.00 0.00 83 1012.9
20260504031705 36 34 0.0 1.0 0.00 0.00 0.00 82 1013.1
20260504031202 36 52 2.0 2.0 0.00 0.00 0.00 82 1013.0
20260504030658 36 38 0.0 0.0 0.00 0.00 0.00 81 1013.0
20260504030155 36 131 0.0 2.0 0.00 0.00 0.00 81 1012.9
20260504025652 37 66 0.0 0.0 0.00 0.00 0.00 80 1013.0
20260504025148 37 38 0.0 0.0 0.00 0.00 0.00 80 1012.9
20260504024646 37 48 0.0 1.0 0.00 0.00 0.00 81 1013.2
20260504024142 37 326 0.0 0.0 0.00 0.00 0.00 80 1013.1
20260504023639 37 76 0.0 0.0 0.00 0.00 0.00 80 1013.2
20260504023135 37 76 0.0 0.0 0.00 0.00 0.00 80 1013.1
20260504022632 37 10 1.0 1.0 0.00 0.00 0.00 80 1013.2
20260504022127 37 80 0.0 0.0 0.00 0.00 0.00 79 1013.1
20260504021626 37 80 0.0 0.0 0.00 0.00 0.00 78 1013.0
20260504021121 37 32 0.0 1.0 0.00 0.00 0.00 78 1013.1
20260504020619 38 55 0.0 1.0 0.00 0.00 0.00 76 1013.1
20260504020115 38 76 0.0 0.0 0.00 0.00 0.00 76 1013.1
20260504015611 38 48 0.0 0.0 0.00 0.00 0.00 75 1013.1
20260504015108 39 49 0.0 0.0 0.00 0.00 0.00 74 1013.0
20260504014604 39 49 0.0 0.0 0.00 0.00 0.00 73 1013.1
20260504014101 39 66 0.0 0.0 0.00 0.00 0.00 73 1013.0
20260504013559 39 315 0.0 0.0 0.00 0.00 0.00 72 1012.9
20260504013055 40 345 0.0 0.0 0.00 0.00 0.00 72 1012.8
20260504012553 40 43 0.0 0.0 0.00 0.00 0.00 72 1012.8
20260504012050 41 19 0.0 0.0 0.00 0.00 0.00 71 1012.8
20260504011547 41 89 0.0 1.0 0.00 0.00 0.00 69 1012.9
20260504011043 41 63 0.0 0.0 0.00 0.00 0.00 69 1012.9
20260504010539 42 191 0.0 1.0 0.00 0.00 0.00 68 1012.7
20260504010036 42 32 0.0 0.0 0.00 0.00 0.00 66 1012.7
20260504005532 43 44 0.0 0.0 0.00 0.00 0.00 64 1012.8
20260504005030 43 329 0.0 0.0 0.00 0.00 0.00 64 1012.7
20260504004527 44 89 0.0 0.0 0.00 0.00 0.00 63 1012.6
20260504004024 44 89 0.0 0.0 0.00 0.00 0.00 62 1012.5
20260504003520 45 76 0.0 1.0 0.00 0.00 0.00 61 1012.3
20260504003017 45 120 0.0 1.0 0.00 0.00 0.00 59 1012.2
20260504002514 46 224 0.0 1.0 0.00 0.00 0.00 63 1012.4
20260504002011 46 243 0.0 0.0 0.00 0.00 0.00 61 1012.3
20260504001509 47 76 0.0 0.0 0.00 0.00 0.00 55 1012.1
20260504001005 48 353 0.0 0.0 0.00 0.00 0.00 52 1012.2
20260504000502 49 233 0.0 0.0 0.00 0.00 0.00 51 1012.0
20260503235959 50 355 1.0 3.0 0.00 0.00 0.00 50 1012.1
20260503235457 50 299 0.0 2.0 0.00 0.00 0.00 50 1012.0
20260503234954 50 297 2.0 3.0 0.00 0.00 0.00 47 1012.0
20260503234452 51 298 0.0 3.0 0.00 0.00 0.00 51 1012.0
20260503233950 51 281 3.0 3.0 0.00 0.00 0.00 46 1011.9
20260503233446 51 257 3.0 6.0 0.00 0.00 0.00 45 1012.0
20260503232942 52 243 3.0 6.0 0.00 0.00 0.00 44 1012.1
20260503232439 52 213 2.0 4.0 0.00 0.00 0.00 44 1012.1
20260503231937 53 240 4.0 7.0 0.00 0.00 0.00 42 1011.9
20260503231435 53 250 3.0 4.0 0.00 0.00 0.00 42 1012.0
20260503230931 53 249 6.0 10.0 0.00 0.00 0.00 43 1011.9
20260503230427 53 271 4.0 7.0 0.00 0.00 0.00 41 1011.9
20260503225925 53 263 9.0 11.0 0.00 0.00 0.00 40 1011.9
20260503225422 54 277 3.0 4.0 0.00 0.00 0.00 41 1011.9
20260503224917 54 246 6.0 10.0 0.00 0.00 0.00 40 1011.6
20260503224415 54 264 3.0 5.0 0.00 0.00 0.00 41 1011.7
20260503223912 53 264 4.0 7.0 0.00 0.00 0.00 39 1011.8
20260503223410 53 234 7.0 8.0 0.00 0.00 0.00 41 1011.6
20260503222910 53 263 4.0 5.0 0.00 0.00 0.00 40 1011.7
20260503222409 53 274 2.0 5.0 0.00 0.00 0.00 42 1011.5
20260503221907 54 239 5.0 7.0 0.00 0.00 0.00 39 1011.4
20260503221406 54 249 7.0 9.0 0.00 0.00 0.00 37 1011.3
20260503220901 54 262 8.0 13.0 0.00 0.00 0.00 37 1011.4
20260503220358 55 263 5.0 10.0 0.00 0.00 0.00 36 1011.2
20260503215855 55 229 4.0 9.0 0.00 0.00 0.00 36 1011.2
20260503215352 55 319 4.0 8.0 0.00 0.00 0.00 36 1011.2
20260503214849 55 253 3.0 11.0 0.00 0.00 0.00 36 1011.3
20260503214347 56 256 6.0 8.0 0.00 0.00 0.00 35 1011.4
20260503213844 55 256 5.0 8.0 0.00 0.00 0.00 36 1011.3
20260503213342 55 300 6.0 9.0 0.00 0.00 0.00 36 1011.5
20260503212838 55 295 2.0 8.0 0.00 0.00 0.00 37 1011.4
20260503212336 55 272 3.0 8.0 0.00 0.00 0.00 39 1011.2
20260503211833 56 237 5.0 8.0 0.00 0.00 0.00 34 1011.3
20260503211330 56 229 3.0 9.0 0.00 0.00 0.00 33 1011.3
20260503210825 55 272 2.0 12.0 0.00 0.00 0.00 34 1011.2
20260503210323 56 266 3.0 11.0 0.00 0.00 0.00 35 1011.3
20260503205817 55 224 3.0 21.0 0.00 0.00 0.00 36 1011.2
20260503205314 56 271 3.0 10.0 0.00 0.00 0.00 34 1011.3
20260503204811 56 322 4.0 9.0 0.00 0.00 0.00 33 1011.2
20260503204309 57 290 3.0 7.0 0.00 0.00 0.00 36 1011.2
20260503203806 57 240 6.0 7.0 0.00 0.00 0.00 34 1011.2
20260503203303 57 244 6.0 9.0 0.00 0.00 0.00 36 1011.2
20260503202800 57 298 4.0 6.0 0.00 0.00 0.00 35 1011.4
20260503202258 55 244 9.0 12.0 0.00 0.00 0.00 32 1011.4
20260503201755 56 235 4.0 15.0 0.00 0.00 0.00 35 1011.3
20260503201253 56 252 5.0 9.0 0.00 0.00 0.00 33 1011.3
20260503200750 56 259 4.0 5.0 0.00 0.00 0.00 36 1011.5
20260503200245 53 227 3.0 12.0 0.00 0.00 0.00 33 1011.5
20260503195743 54 284 2.0 5.0 0.00 0.00 0.00 37 1011.5
20260503195239 54 242 9.0 11.0 0.00 0.00 0.00 33 1011.7
20260503194737 53 215 6.0 11.0 0.00 0.00 0.00 34 1011.9
20260503194232 54 234 6.0 14.0 0.00 0.00 0.00 36 1011.6
20260503193729 54 245 8.0 12.0 0.00 0.00 0.00 33 1011.7
20260503193225 55 257 6.0 16.0 0.00 0.00 0.00 35 1011.7
20260503192721 54 242 9.0 13.0 0.00 0.00 0.00 33 1011.8
20260503192216 54 246 6.0 15.0 0.00 0.00 0.00 36 1011.7
20260503191713 54 240 10.0 13.0 0.00 0.00 0.00 33 1011.8
20260503191211 55 342 7.0 9.0 0.00 0.00 0.00 35 1012.1
20260503190707 54 291 5.0 12.0 0.00 0.00 0.00 35 1012.0
20260503190204 55 239 15.0 15.0 0.00 0.00 0.00 34 1012.0
20260503185701 54 307 4.0 22.0 0.00 0.00 0.00 38 1011.9
20260503185156 53 254 6.0 12.0 0.00 0.00 0.00 35 1011.9
20260503184651 54 8 3.0 6.0 0.00 0.00 0.00 36 1012.0
20260503184148 54 245 13.0 15.0 0.00 0.00 0.00 36 1012.1
20260503183644 53 98 8.0 9.0 0.00 0.00 0.00 38 1012.2
20260503183142 53 260 3.0 13.0 0.00 0.00 0.00 34 1012.1
20260503182640 53 250 11.0 13.0 0.00 0.00 0.00 36 1012.4
20260503182139 51 259 5.0 11.0 0.00 0.00 0.00 36 1012.2
20260503181635 52 241 9.0 12.0 0.00 0.00 0.00 40 1012.1
20260503181132 53 347 2.0 10.0 0.00 0.00 0.00 38 1012.2
20260503180628 53 282 3.0 12.0 0.00 0.00 0.00 35 1012.4
20260503180126 53 255 6.0 11.0 0.00 0.00 0.00 35 1012.4
20260503175623 52 110 2.0 7.0 0.00 0.00 0.00 37 1012.4
20260503175120 51 224 9.0 11.0 0.00 0.00 0.00 40 1012.5
20260503174617 51 246 8.0 11.0 0.00 0.00 0.00 38 1012.5
20260503174114 50 62 4.0 14.0 0.00 0.00 0.00 42 1012.6
20260503173609 50 316 5.0 6.0 0.00 0.00 0.00 38 1012.8